Powrót do katalogu

STARLINK-32097

AktywnyŁącznośćVLEO
NORAD 60351·PAYLOAD·🇺🇸 United States

Wystrzelony Aug 2, 2024 z Cape Canaveral Space Force Station

Loading…

Następne Przeloty (najbliższe 24 godziny)

TLE

ŚwieżeSource: CelesTrak SupGP

Epoka: Sep 14, 2026, 22:32 UTC

1 60351C 24136Y   26257.93937500  .00055748  00000+0  16475-2 0  2579
2 60351  53.1568 272.0291 0001164  91.6281 288.7454 15.34355077    16

Śledź STARLINK-32097 w czasie rzeczywistym z AllMySat

Download on the App Store